EW1233 Weather Reports


Display with metric or nautical units.
time (UTC)temp
F
wind
direction
speed
MPH
gust
MPH
rain 1hr
in
rain 24hr
in
rain mn
in
humidity
%
barometer
mb
20260508133026 48 218 2.0 4.0 0.00 0.00 0.00 62 1007.0
20260508131604 46 218 3.0 6.0 0.00 0.00 0.00 63 1007.1
20260508130028 44 214 0.0 7.0 0.00 0.00 0.00 64 1007.1
20260508124603 42 192 1.0 3.0 0.00 0.00 0.00 74 1006.9
20260508123023 39 192 0.0 0.0 0.00 0.00 0.00 79 1006.8
20260508121611 38 192 0.0 0.0 0.00 0.00 0.00 77 1006.9
20260508120012 37 192 1.0 4.0 0.00 0.00 0.00 76 1007.0
20260508114606 36 192 0.0 2.0 0.00 0.00 0.00 76 1006.9
20260508113007 35 192 0.0 3.0 0.00 0.00 0.00 74 1006.8
20260508111538 36 192 0.0 3.0 0.00 0.00 0.00 72 1006.9
20260508110107 37 192 0.0 3.0 0.00 0.00 0.00 70 1007.0
20260508104511 38 360 0.0 3.0 0.00 0.00 0.00 67 1006.9
20260508103022 40 192 0.0 0.0 0.00 0.00 0.00 65 1007.0
20260508101557 41 192 0.0 0.0 0.00 0.00 0.00 65 1007.0
20260508100016 41 192 0.0 0.0 0.00 0.00 0.00 64 1007.2
20260508094558 41 192 0.0 0.0 0.00 0.00 0.00 64 1007.2
20260508093027 42 192 0.0 6.0 0.00 0.00 0.00 65 1007.1
20260508091607 43 194 5.0 8.0 0.00 0.00 0.00 67 1007.0
20260508090038 42 294 0.0 0.0 0.00 0.00 0.00 70 1007.7
20260508084533 42 294 0.0 0.0 0.00 0.00 0.00 71 1007.5
20260508083112 42 294 0.0 0.0 0.00 0.00 0.00 71 1007.5
20260508081530 41 294 0.0 0.0 0.00 0.00 0.00 71 1007.6
20260508080108 41 294 0.0 0.0 0.00 0.00 0.00 70 1007.7
20260508074521 40 294 0.0 0.0 0.00 0.00 0.00 70 1008.1
20260508073106 39 294 0.0 0.0 0.00 0.00 0.00 70 1008.1
20260508071503 38 294 0.0 3.0 0.00 0.00 0.00 73 1008.0
20260508070027 37 295 0.0 4.0 0.00 0.00 0.00 72 1008.1
20260508064608 37 304 0.0 0.0 0.00 0.00 0.00 72 1008.4
20260508063016 37 304 0.0 0.0 0.00 0.00 0.00 70 1008.3
20260508061602 37 304 0.0 0.0 0.00 0.00 0.00 71 1008.4
20260508060019 35 304 0.0 0.0 0.00 0.00 0.00 72 1008.4
20260508054617 36 304 0.0 0.0 0.00 0.00 0.00 70 1008.4
20260508053119 38 304 0.0 0.0 0.00 0.00 0.00 67 1008.7
20260508051609 39 304 0.0 0.0 0.00 0.00 0.00 67 1008.6
20260508050053 40 304 0.0 0.0 0.00 0.00 0.00 64 1008.6
20260508044547 41 304 0.0 2.0 0.00 0.00 0.00 64 1008.6
20260508043053 38 288 1.0 5.0 0.00 0.00 0.00 69 1008.7
20260508041547 38 265 0.0 0.0 0.00 0.00 0.00 67 1008.7
20260508040055 39 265 0.0 0.0 0.00 0.00 0.00 66 1008.7
20260508034546 40 265 0.0 0.0 0.00 0.00 0.00 64 1008.8
20260508033044 41 265 0.0 0.0 0.00 0.00 0.00 63 1008.7
20260508031552 42 265 0.0 0.0 0.00 0.00 0.00 61 1008.6
20260508030046 43 265 0.0 0.0 0.00 0.00 0.00 61 1008.5
20260508024544 44 265 0.0 0.0 0.00 0.00 0.00 59 1008.5
20260508023043 47 360 0.0 0.0 0.00 0.00 0.00 56 1008.4
20260508021605 49 265 0.0 0.0 0.00 0.00 0.00 54 1008.1
20260508020023 51 265 0.0 0.0 0.00 0.00 0.00 50 1008.0
20260508014601 53 265 0.0 0.0 0.00 0.00 0.00 46 1008.0
20260508013029 55 265 0.0 0.0 0.00 0.00 0.00 40 1008.0
20260508011616 57 265 0.0 2.0 0.00 0.00 0.00 38 1008.1
20260508010032 58 265 0.0 2.0 0.00 0.00 0.00 33 1008.1
20260508004538 59 265 0.0 2.0 0.00 0.00 0.00 30 1008.1
20260508003015 60 263 0.0 7.0 0.00 0.00 0.00 28 1008.1
20260508001553 60 304 3.0 8.0 0.00 0.00 0.00 28 1008.2
20260508000010 61 269 0.0 10.0 0.00 0.00 0.00 27 1008.2
20260507234550 61 309 3.0 9.0 0.00 0.00 0.00 27 1008.3
20260507233008 62 313 5.0 9.0 0.00 0.00 0.00 27 1008.5
20260507231545 62 309 3.0 11.0 0.00 0.00 0.00 27 1008.5
20260507230002 63 296 5.0 13.0 0.00 0.00 0.00 27 1008.6
20260507224535 63 261 5.0 9.0 0.00 0.00 0.00 25 1008.5
20260507223030 63 258 4.0 11.0 0.00 0.00 0.00 24 1008.7
20260507221610 63 301 6.0 12.0 0.00 0.00 0.00 24 1008.8
20260507220032 63 298 3.0 13.0 0.00 0.00 0.00 25 1009.0
20260507214612 63 260 2.0 12.0 0.00 0.00 0.00 24 1009.2
20260507213042 63 233 5.0 10.0 0.00 0.00 0.00 26 1009.3
20260507211503 63 329 5.0 13.0 0.00 0.00 0.00 26 1009.2
20260507210034 63 242 1.0 15.0 0.00 0.00 0.00 23 1009.3
20260507204613 63 222 5.0 12.0 0.00 0.00 0.00 26 1009.4
20260507203037 62 315 8.0 16.0 0.00 0.00 0.00 28 1009.6
20260507201507 62 5 6.0 14.0 0.00 0.00 0.00 27 1009.8
20260507200045 61 318 4.0 14.0 0.00 0.00 0.00 27 1009.9
20260507194506 61 319 5.0 12.0 0.00 0.00 0.00 27 1010.1
20260507193102 60 254 0.0 11.0 0.00 0.00 0.00 30 1010.1
20260507191552 60 221 7.0 12.0 0.00 0.00 0.00 28 1010.3
20260507190121 60 246 5.0 11.0 0.00 0.00 0.00 30 1010.3
20260507184509 59 327 2.0 8.0 0.00 0.00 0.00 32 1010.4
20260507183047 59 294 4.0 11.0 0.00 0.00 0.00 30 1010.4
20260507181515 58 299 7.0 12.0 0.00 0.00 0.00 32 1010.5
20260507180044 58 325 1.0 8.0 0.00 0.00 0.00 28 1010.7
20260507174551 58 342 3.0 12.0 0.00 0.00 0.00 30 1010.9
20260507173016 58 316 5.0 9.0 0.00 0.00 0.00 30 1011.0
20260507171600 57 336 3.0 13.0 0.00 0.00 0.00 35 1011.3
20260507170105 57 241 3.0 9.0 0.00 0.00 0.00 33 1011.4
20260507164530 56 355 1.0 7.0 0.00 0.00 0.00 32 1011.6
20260507163047 55 10 0.0 6.0 0.00 0.00 0.00 33 1011.7
20260507161511 54 288 0.0 3.0 0.00 0.00 0.00 36 1011.9
20260507160042 54 236 0.0 6.0 0.00 0.00 0.00 39 1012.1
20260507154603 53 210 0.0 3.0 0.00 0.00 0.00 44 1012.1
20260507153027 52 209 0.0 5.0 0.00 0.00 0.00 46 1012.1
20260507151603 51 208 1.0 7.0 0.00 0.00 0.00 50 1012.1
20260507150017 50 200 3.0 7.0 0.00 0.00 0.00 49 1012.1
20260507144558 49 198 2.0 6.0 0.00 0.00 0.00 55 1012.1
20260507143032 47 192 0.0 6.0 0.00 0.00 0.00 58 1012.0
20260507141633 46 192 3.0 7.0 0.00 0.00 0.00 59 1012.0
20260507140044 44 163 3.0 7.0 0.00 0.00 0.00 62 1012.0
20260507134616 43 186 3.0 7.0 0.00 0.00 0.00 62 1012.0